Regional Weather Roundup
Issued by NWS

Home | Current Version | Previous Version | Graphics & Text | Print | Product List | Glossary On
Versions: 1 2 3 4 5 6 7 8 9 10 11 12 13 14 15 16 17 18 19 20 21 22 23 24 25 26 27 28 29 30 31 32 33 34 35 36 37 38 39 40 41 42 43 44 45 46 47 48 49 50
241
ASUS43 KLOT 110403
RWRIL

ILLINOIS REGIONAL WEATHER ROUNDUP
NATIONAL WEATHER SERVICE CHICAGO/ROMEOVILLE IL
1000 PM CST SUN DEC 10 2017

NOTE: "FAIR" INDICATES FEW OR NO CLOUDS BELOW 12,000 FEET WITH NO
SIGNIFICANT WEATHER AND/OR OBSTRUCTIONS TO VISIBILITY.

* THESE STATIONS ARE NOT UNDER NWS QUALITY CONTROL. THEY ALSO MAY NOT
  REPORT WEATHER SUCH AS PRECIPITATION OR FOG.

ILZ001-002-007-009-015-016-024-110500-
NORTHWEST ILLINOIS

CITY           SKY/WX    TMP DP  RH WIND       PRES   REMARKS
MOLINE         CLOUDY    23  18  81 CALM      30.09F
STERLING*      CLOUDY    22  18  85 CALM      30.10S
SAVANNA*       CLOUDY    21  19  91 SE3       30.09F
$$

ILZ003-004-008-010-011-017-018-110500-
NORTH CENTRAL ILLINOIS

CITY           SKY/WX    TMP DP  RH WIND       PRES   REMARKS
ROCKFORD       PTCLDY    24  18  77 NW3       30.10R
FREEPORT*      CLOUDY    21  17  84 CALM      30.09S
ROCHELLE*      CLEAR     22  18  83 NW5       30.09S WCI  16
DE KALB*       PTCLDY    24  19  81 NW5       30.08R WCI  18
PERU*          CLEAR     24  19  80 CALM      30.11R
$$

ILZ005-006-012>014-019>023-110500-
NORTHEAST ILLINOIS

CITY           SKY/WX    TMP DP  RH WIND       PRES   REMARKS
CHICAGO-OHARE  CLOUDY    29  19  66 N7        30.07S WCI  22
CHICAGO-MIDWAY CLOUDY    30  20  66 N7        30.08S WCI  23
AURORA         PTCLDY    19  16  88 W5        30.08S WCI  12
LANSING*       CLOUDY    29  21  71 N6        30.09S WCI  23
WAUKEGAN       CLOUDY    27  19  72 NW5       30.07S WCI  22
DUPAGE AIRPORT MOCLDY    24  19  81 CALM      30.07S
KANKAKEE*      CLEAR     25  19  76 W3        30.10S
WHEELING       CLOUDY    29  20  69 N6        30.09S WCI  23
MORRIS*        CLEAR     23  18  83 CALM      30.09R
ROMEOVILLE*    MOCLDY    25  20  83 W3        30.08S
NORTHERLY ISL    N/A     29  19  66 NW12        N/A  WCI  19
$$

LMZ740>746-110500-
SOUTHERN LAKE MICHIGAN

STATION/POSITION SKY/WX   TEMP    WIND        PRES    VSBY  WAVE
                          AIR SEA DIR/SP/G                  HT/PER
                          (F)     (DEG/KT/KT) (MB)    (MI)  (FT/S)
HARRISON CRIB              30     320/ 15/ 18   N/A
BURNHAM HARBOR             29     340/  6/ 14   N/A
CALUMET HARBOR             29     310/  8/ 12 1018.2R
BURNS HARBOR               31     330/ 10/ 18 1018.6S
MICHIGAN CITY              31     300/ 18/ 20   N/A
$$

ILZ025>027-034>036-040-047-049-050-058-095>099-110500-
WEST-CENTRAL ILLINOIS

CITY           SKY/WX    TMP DP  RH WIND       PRES   REMARKS
QUINCY         CLOUDY    34  24  67 SW3       30.11S
GALESBURG*     CLOUDY    23  22  94 CALM      30.12S
MACOMB*        CLOUDY    23  19  87 NE3       30.13S
JACKSONVILLE*  CLOUDY    28  22  79 SW3       30.12S
PITTSFIELD*    CLEAR     26  21  79 CALM      30.13S
$$

ILZ028>032-037-038-041>044-048-051>054-059>061-110500-
CENTRAL ILLINOIS

CITY           SKY/WX    TMP DP  RH WIND       PRES   REMARKS
PONTIAC        CLOUDY    24  21  89 CALM      30.11S
BLOOMINGTON    CLOUDY    24  20  84 CALM      30.10F
DECATUR        CLOUDY    28  22  78 N6        30.13R WCI  22
PEORIA         CLEAR     26  20  77 CALM      30.12F
LACON*         CLOUDY    23  20  87 CALM      30.11S
LINCOLN*       CLOUDY    27  23  84 CALM      30.13S
SPRINGFIELD    CLOUDY    29  21  72 CALM      30.13S
TAYLORVILLE    CLEAR     27  21  77 CALM      30.14R
$$

ILZ033-039-045-046-055>057-062-063-110500-
EAST-CENTRAL ILLINOIS

CITY           SKY/WX    TMP DP  RH WIND       PRES   REMARKS
CHAMPAIGN      CLEAR     24  19  81 W5        30.11S WCI  18
DANVILLE*      CLEAR     25  19  80 NW5       30.07S WCI  19
RANTOUL*       CLOUDY    27  22  80 NW3       30.10S
MATTOON        CLEAR     28  21  75 NW5       30.12R WCI  23
PARIS*         CLEAR     26  22  83 NW3       30.12S
$$

ILZ079-100>102-110500-
SOUTHWEST ILLINOIS

CITY           SKY/WX    TMP DP  RH WIND       PRES   REMARKS
ALTON          CLEAR     28  23  80 CALM      30.14S
BELLEVILLE     CLEAR     31  22  71 CALM      30.12S
CAHOKIA*       CLEAR     33  23  66 CALM      30.14R
$$

ILZ064>066-069>071-074>076-080>082-084>086-088>090-092>094-110500-
SOUTH-CENTRAL ILLINOIS

CITY           SKY/WX    TMP DP  RH WIND       PRES   REMARKS
CARBONDALE     CLEAR     28  24  85 SW3       30.15R
CAIRO*         CLEAR     33  30  88 CALM      30.16R
EFFINGHAM*     CLEAR     31  26  80 CALM      30.15R
MARION         CLEAR     33  28  82 CALM      30.16R
MT. VERNON     CLEAR     25  23  92 CALM      30.14R
CENTRALIA*     CLEAR     31  26  81 CALM      30.13R
SALEM*         CLEAR     32  25  74 CALM      30.14R
METROPOLIS*    PTCLDY    38  31  77 SW3       30.16R
$$

ILZ067-068-072-073-078-083-087-091-110500-
SOUTHEAST ILLINOIS

CITY           SKY/WX    TMP DP  RH WIND       PRES   REMARKS
LAWRENCEVILLE  CLEAR     32  23  69 NW6       30.13R WCI  26
FLORA*         CLEAR     36  26  66 NW6       30.14R WCI  31
FAIRFIELD*     CLEAR     28  23  81 CALM      30.14R
HARRISBURG*    CLEAR     33  28  82 CALM      30.15R
ROBINSON*      CLEAR     32  24  73 NW7       30.14R WCI  26
CARMI*         CLEAR     31  26  82 NW6       30.13S WCI  25
$$

ABBREVIATIONS USED IN REMARKS
   TC - TEMPERATURE IN CELSIUS
  WCI - WIND CHILL INDEX
   HX - HEAT INDEX
  VSB - VISIBILITY
$$





USA.gov is the U.S. government's official web portal to all federal, state and local government web resources and services.